This is the latest recevied weather packets stored in our database for station/object DK9XR-14. If no packets are shown the sender has not sent any weather packets the latest 10 day(s).
| Time | Temp. | Humidity | Pressure | Rain* | Wind** | Luminosity | Snow |
|---|---|---|---|---|---|---|---|
| 1777991194 | 16.67° C | 69% | 1008.9 hPa | 0 mm | - | - | - |
| 1777990890 | 16.67° C | 69% | 1008.7 hPa | 0 mm | - | - | - |
| 1777990590 | 17.22° C | 70% | 1008.8 hPa | 0 mm | - | - | - |
| 1777989989 | 17.22° C | 68% | 1008.7 hPa | 0 mm | - | - | - |
| 1777989690 | 17.22° C | 70% | 1008.8 hPa | 0 mm | - | - | - |
| 1777989389 | 16.67° C | 69% | 1008.8 hPa | 0 mm | - | - | - |
| 1777989088 | 16.67° C | 69% | 1008.8 hPa | 0 mm | - | - | - |
| 1777988781 | 16.67° C | 68% | 1008.9 hPa | 0 mm | - | - | - |
| 1777988480 | 16.67° C | 70% | 1008.9 hPa | 0 mm | - | - | - |
| 1777988178 | 16.67° C | 72% | 1009 hPa | 0 mm | - | - | - |
| 1777987879 | 16.11° C | 71% | 1009.1 hPa | 0 mm | - | - | - |
| 1777987575 | 16.11° C | 73% | 1009.3 hPa | 0.25 mm | - | - | - |
| 1777987277 | 16.11° C | 74% | 1009.4 hPa | 0.25 mm | - | - | - |
| 1777986975 | 16.11° C | 75% | 1009.4 hPa | 0.25 mm | - | - | - |
| 1777986677 | 16.11° C | 75% | 1009.5 hPa | 0.25 mm | - | - | - |
| 1777986371 | 16.11° C | 77% | 1009.5 hPa | 0.25 mm | - | - | - |
| 1777986072 | 16.11° C | 78% | 1009.5 hPa | 0.25 mm | - | - | - |
| 1777985767 | 16.11° C | 77% | 1009.6 hPa | 0.25 mm | - | - | - |
| 1777985467 | 16.11° C | 79% | 1009.7 hPa | 0.25 mm | - | - | - |
| 1777985166 | 16.11° C | 76% | 1009.6 hPa | 0.25 mm | - | - | - |
| 1777984865 | 16.11° C | 74% | 1009.7 hPa | 0.25 mm | - | - | - |
| 1777984565 | 16.67° C | 73% | 1009.7 hPa | 0.25 mm | - | - | - |
| 1777984264 | 17.22° C | 72% | 1009.8 hPa | 0 mm | - | - | - |
| 1777983963 | 17.78° C | 66% | 1009.8 hPa | 0 mm | - | - | - |
| 1777983665 | 18.33° C | 60% | 1009.7 hPa | 0 mm | - | - | - |
* Rain latest hour (hover to see other rain measurements)
** Current wind speed in m/s (hover to see current wind gust speed)